Preview of NWS' New Version of Forecast
This preview is not operational and should not be used for support decisions.

Regional Weather Roundup (RWR)

Issued by National Weather Service (NWS)

                            
000
ASUS43 KLSX 220357
RWRMO 

WEATHER SUMMARY FOR MISSOURI
NATIONAL WEATHER SERVICE SPRINGFIELD MO
1100 PM CDT SUN APR 21 2019

NOTE: "FAIR" INDICATES FEW OR NO CLOUDS BELOW 12,000 FEET WITH NO
       SIGNIFICANT WEATHER AND/OR OBSTRUCTIONS TO VISIBILITY.
       CURRENT SKY AND/OR WEATHER CONDITIONS ARE NOT AVAILABLE FOR
       CHILLICOTHE AND FARMINGTON.

MOZ001>031-035>038-043-044-053-054-220500-
...NORTHERN AND WESTERN MISSOURI...
  
CITY           SKY/WX    TMP DP  RH WIND       PRES   REMARKS
KANSAS CTY INT PTCLDY    72  49  44 S16       29.82R                  
LEE'S SUMMIT   CLOUDY    74  49  41 S17       29.85R                  
ST JOSEPH      CLOUDY    73  50  44 S16       29.80S                  
CHILLICOTHE      N/A     71  47  42 S5        29.86R                  
     
$$
MOZ066>068-077>081-088>096-101>105-220500-
...SOUTHWEST MISSOURI...
  
CITY           SKY/WX    TMP DP  RH WIND       PRES   REMARKS
SPRINGFIELD    CLOUDY    71  50  47 S17       29.94R                  
JOPLIN         PTCLDY    70  50  49 S13       29.91R                  
               
$$
MOZ032>034-039>042-045>050-055>058-069>072-220500-
...CENTRAL MISSOURI...  
  
CITY           SKY/WX    TMP DP  RH WIND       PRES   REMARKS
COLUMBIA       NOT AVBL                                               
JEFFERSON CITY PTCLDY    74  46  36 SE12G21   29.93S                  
ROLLA          MOCLDY    69  47  45 S18G26    30.00S                  
SEDALIA        CLOUDY    69  47  45 S16G25    29.89R                  
WARRENSBURG    CLOUDY    72  45  37 SE10      29.87R                  
               
$$
MOZ051-052-059>065-220500-
...EAST CENTRAL MISSOURI...
  
CITY           SKY/WX    TMP DP  RH WIND       PRES   REMARKS
ST LOUIS INTL  CLOUDY    69  47  45 S15       30.02R                  
                   
$$
MOZ072>076-082>087-097>100-106>115-220500-
...SOUTH CENTRAL AND SOUTHEAST MISSOURI...
  
CITY           SKY/WX    TMP DP  RH WIND       PRES   REMARKS
CAPE GIRARDEAU FAIR      60  50  69 S6        30.08R                  
POPLAR BLUFF   FAIR      64  51  62 S6        30.07S                  
WEST PLAINS    MOCLDY    65  49  56 S9        30.05S                  
                                       
$$